• In Moldova, Republic
  • List of Countries
  • For 7 days
  • Water Temperature
  • Satellite Maps
  • Weather Map
  • Weather Widgets
  • user-avatar
    Login

    Hourly Weather Quito

    Today, 28 June, Wednesday

    Time Temperature Precipitation Wind Pressure Humidity
    00:00 +13°C° 0 mm 1 mps 622 mmHg 57%
    01:00 +12°C° 0 mm 1 mps 622 mmHg 64%
    02:00 +11°C° 0 mm 1 mps 622 mmHg 66%
    03:00 +11°C° 0 mm 1 mps 622 mmHg 68%
    04:00 +11°C° 0 mm 1 mps 622 mmHg 71%
    05:00 +11°C° 0 mm 1 mps 622 mmHg 69%
    06:00 +12°C° 0 mm 1 mps 622 mmHg 66%
    07:00 +14°C° 0 mm 1 mps 624 mmHg 58%
    08:00 +17°C° 0 mm 2 mps 625 mmHg 49%
    09:00 +19°C° 0 mm 2 mps 626 mmHg 40%
    10:00 +22°C° 0 mm 3 mps 626 mmHg 31%
    11:00 +24°C° 0 mm 3 mps 626 mmHg 28%
    12:00 +26°C° 0 mm 3 mps 626 mmHg 24%
    13:00 +27°C° 0 mm 3 mps 626 mmHg 20%
    14:00 +27°C° 0 mm 3 mps 625 mmHg 20%
    15:00 +27°C° 0 mm 3 mps 625 mmHg 20%
    16:00 +26°C° 0 mm 3 mps 625 mmHg 20%
    17:00 +23°C° 0 mm 2 mps 624 mmHg 26%
    18:00 +18°C° 0 mm 2 mps 623 mmHg 32%
    19:00 +15°C° 0 mm 2 mps 622 mmHg 39%
    20:00 +14°C° 0 mm 2 mps 622 mmHg 41%
    21:00 +13°C° 0 mm 1 mps 622 mmHg 43%
    22:00 +13°C° 0 mm 1 mps 622 mmHg 45%
    23:00 +12°C° 0 mm 1 mps 622 mmHg 48%

    Tomorrow, 29 June, Thursday

    Time Temperature Precipitation Wind Pressure Humidity
    00:00 +11°C° 0 mm 1 mps 622 mmHg 51%
    01:00 +11°C° 0 mm 1 mps 622 mmHg 53%
    02:00 +10°C° 0 mm 1 mps 621 mmHg 58%
    03:00 +10°C° 0 mm 1 mps 621 mmHg 62%
    04:00 +9°C° 0 mm 1 mps 621 mmHg 66%
    05:00 +10°C° 0 mm 1 mps 621 mmHg 63%
    06:00 +10°C° 0 mm 1 mps 622 mmHg 60%
    07:00 +11°C° 0 mm 1 mps 623 mmHg 58%
    08:00 +15°C° 0 mm 2 mps 624 mmHg 47%
    09:00 +18°C° 0 mm 3 mps 626 mmHg 36%
    10:00 +22°C° 0 mm 4 mps 627 mmHg 25%
    11:00 +23°C° 0 mm 4 mps 627 mmHg 22%
    12:00 +25°C° 0 mm 4 mps 627 mmHg 19%
    13:00 +26°C° 0 mm 3 mps 626 mmHg 16%
    14:00 +26°C° 0 mm 3 mps 626 mmHg 17%
    15:00 +26°C° 0 mm 3 mps 625 mmHg 17%
    16:00 +26°C° 0 mm 3 mps 625 mmHg 17%
    17:00 +21°C° 0 mm 2 mps 624 mmHg 24%
    18:00 +17°C° 0 mm 2 mps 623 mmHg 31%
    19:00 +13°C° 0 mm 1 mps 622 mmHg 37%
    20:00 +13°C° 0 mm 1 mps 622 mmHg 40%
    21:00 +12°C° 0 mm 1 mps 623 mmHg 42%
    22:00 +11°C° 0 mm 1 mps 623 mmHg 45%
    23:00 +11°C° 0 mm 1 mps 623 mmHg 46%

    Day after tomorrow, 30 June, Friday

    Time Temperature Precipitation Wind Pressure Humidity
    00:00 +11°C° 0 mm 1 mps 623 mmHg 48%
    01:00 +10°C° 0 mm 1 mps 623 mmHg 49%
    02:00 +10°C° 0 mm 1 mps 622 mmHg 52%
    03:00 +9°C° 0 mm 1 mps 622 mmHg 55%
    04:00 +9°C° 0 mm 1 mps 621 mmHg 58%
    05:00 +9°C° 0 mm 1 mps 622 mmHg 57%
    06:00 +10°C° 0 mm 1 mps 623 mmHg 57%
    07:00 +10°C° 0 mm 1 mps 623 mmHg 56%
    08:00 +14°C° 0 mm 2 mps 625 mmHg 46%
    09:00 +18°C° 0 mm 2 mps 626 mmHg 36%
    10:00 +22°C° 0 mm 3 mps 628 mmHg 26%
    11:00 +25°C° 0 mm 3 mps 627 mmHg 22%
    12:00 +26°C° 0 mm 2 mps 627 mmHg 19%
    13:00 +27°C° 0 mm 2 mps 627 mmHg 15%
    14:00 +27°C° 0 mm 2 mps 626 mmHg 16%
    15:00 +27°C° 0 mm 2 mps 625 mmHg 16%
    16:00 +26°C° 0 mm 2 mps 625 mmHg 16%
    17:00 +21°C° 0 mm 2 mps 624 mmHg 24%
    18:00 +19°C° 0 mm 1 mps 623 mmHg 32%
    19:00 +14°C° 0 mm 1 mps 622 mmHg 41%
    20:00 +13°C° 0 mm 1 mps 622 mmHg 39%
    21:00 +13°C° 0 mm 1 mps 623 mmHg 38%
    22:00 +13°C° 0 mm 1 mps 623 mmHg 37%
    23:00 +12°C° 0 mm 1 mps 623 mmHg 41%

    1 July, Saturday

    Time Temperature Precipitation Wind Pressure Humidity
    00:00 +11°C° 0 mm 1 mps 622 mmHg 45%
    01:00 +11°C° 0 mm 1 mps 622 mmHg 49%
    02:00 +10°C° 0 mm 1 mps 622 mmHg 52%
    03:00 +10°C° 0 mm 1 mps 621 mmHg 55%
    04:00 +10°C° 0 mm 1 mps 621 mmHg 58%
    05:00 +10°C° 0 mm 1 mps 622 mmHg 57%
    06:00 +11°C° 0 mm 1 mps 622 mmHg 56%
    07:00 +11°C° 0 mm 1 mps 623 mmHg 54%
    08:00 +15°C° 0 mm 2 mps 624 mmHg 45%
    09:00 +19°C° 0 mm 3 mps 626 mmHg 36%
    10:00 +22°C° 0 mm 3 mps 627 mmHg 27%
    11:00 +25°C° 0 mm 3 mps 627 mmHg 24%
    12:00 +26°C° 0 mm 3 mps 626 mmHg 21%
    13:00 +27°C° 0 mm 3 mps 626 mmHg 17%
    14:00 +27°C° 0 mm 2 mps 625 mmHg 17%
    15:00 +27°C° 0 mm 2 mps 625 mmHg 17%
    16:00 +26°C° 0 mm 2 mps 624 mmHg 17%
    17:00 +23°C° 0 mm 2 mps 624 mmHg 23%
    18:00 +18°C° 0 mm 2 mps 623 mmHg 29%
    19:00 +15°C° 0 mm 2 mps 622 mmHg 35%
    20:00 +14°C° 0 mm 2 mps 623 mmHg 38%
    21:00 +13°C° 0 mm 2 mps 623 mmHg 42%
    22:00 +12°C° 0 mm 2 mps 623 mmHg 45%
    23:00 +12°C° 0 mm 2 mps 622 mmHg 50%

    2 July, Sunday

    Time Temperature Precipitation Wind Pressure Humidity
    00:00 +11°C° 0 mm 1 mps 622 mmHg 56%
    01:00 +11°C° 0 mm 1 mps 622 mmHg 61%
    02:00 +10°C° 0 mm 1 mps 621 mmHg 65%
    03:00 +10°C° 0 mm 1 mps 621 mmHg 68%
    04:00 +9°C° 0 mm 1 mps 621 mmHg 72%
    05:00 +10°C° 0 mm 1 mps 622 mmHg 69%
    06:00 +11°C° 0 mm 1 mps 622 mmHg 66%
    07:00 +11°C° 0 mm 1 mps 623 mmHg 64%
    08:00 +15°C° 0 mm 2 mps 624 mmHg 51%
    09:00 +18°C° 0 mm 3 mps 625 mmHg 39%
    10:00 +22°C° 0 mm 4 mps 627 mmHg 27%
    11:00 +23°C° 0 mm 4 mps 626 mmHg 24%
    12:00 +25°C° 0 mm 3 mps 626 mmHg 21%
    13:00 +27°C° 0 mm 3 mps 626 mmHg 18%
    14:00 +26°C° 0 mm 3 mps 625 mmHg 18%
    15:00 +26°C° 0 mm 2 mps 625 mmHg 18%
    16:00 +26°C° 0 mm 2 mps 624 mmHg 18%
    17:00 +21°C° 0 mm 2 mps 624 mmHg 24%
    18:00 +18°C° 0 mm 2 mps 623 mmHg 31%
    19:00 +14°C° 0 mm 2 mps 622 mmHg 38%
    20:00 +14°C° 0 mm 2 mps 622 mmHg 41%
    21:00 +13°C° 0 mm 1 mps 622 mmHg 44%
    22:00 +12°C° 0 mm 1 mps 622 mmHg 47%
    23:00 +12°C° 0 mm 1 mps 622 mmHg 51%

    3 July, Monday

    Time Temperature Precipitation Wind Pressure Humidity
    00:00 +11°C° 0 mm 1 mps 621 mmHg 55%
    01:00 +10°C° 0 mm 1 mps 621 mmHg 58%
    02:00 +10°C° 0 mm 1 mps 621 mmHg 61%
    03:00 +10°C° 0 mm 1 mps 621 mmHg 64%
    04:00 +9°C° 0 mm 1 mps 621 mmHg 66%
    05:00 +10°C° 0 mm 1 mps 621 mmHg 64%
    06:00 +10°C° 0 mm 1 mps 622 mmHg 61%
    07:00 +11°C° 0 mm 1 mps 623 mmHg 59%
    08:00 +15°C° 0 mm 2 mps 624 mmHg 48%
    09:00 +18°C° 0 mm 2 mps 625 mmHg 37%
    10:00 +22°C° 0 mm 3 mps 626 mmHg 27%
    11:00 +24°C° 0 mm 3 mps 626 mmHg 23%
    12:00 +26°C° 0 mm 2 mps 626 mmHg 20%
    13:00 +27°C° 0 mm 2 mps 626 mmHg 17%
    14:00 +27°C° 0 mm 2 mps 625 mmHg 17%
    15:00 +27°C° 0 mm 2 mps 625 mmHg 17%
    16:00 +26°C° 0 mm 2 mps 624 mmHg 17%
    17:00 +23°C° 0 mm 2 mps 623 mmHg 23%
    18:00 +18°C° 0 mm 2 mps 623 mmHg 29%
    19:00 +15°C° 0 mm 2 mps 622 mmHg 35%
    20:00 +14°C° 0 mm 2 mps 622 mmHg 37%
    21:00 +13°C° 0 mm 2 mps 622 mmHg 38%
    22:00 +13°C° 0 mm 1 mps 622 mmHg 40%
    23:00 +12°C° 0 mm 1 mps 622 mmHg 44%
    Show more